EN

Hourly Weather Kyzylzhar

Today, 4 August, Wednesday

Time Temperature Precipitation Wind Pressure Humidity
00:00 +29°C° 0 mm 3 mps 740 mmHg 29%
01:00 +29°C° 0 mm 3 mps 740 mmHg 30%
02:00 +28°C° 0 mm 2 mps 740 mmHg 31%
03:00 +27°C° 0 mm 2 mps 740 mmHg 33%
04:00 +27°C° 0 mm 1 mps 740 mmHg 34%
05:00 +28°C° 0 mm 1 mps 740 mmHg 32%
06:00 +29°C° 0 mm 1 mps 740 mmHg 30%
07:00 +31°C° 0 mm 1 mps 740 mmHg 28%
08:00 +33°C° 0 mm 1 mps 740 mmHg 24%
09:00 +36°C° 0 mm 2 mps 740 mmHg 21%
10:00 +38°C° 0 mm 2 mps 740 mmHg 18%
11:00 +39°C° 0 mm 2 mps 740 mmHg 16%
12:00 +40°C° 0 mm 2 mps 740 mmHg 15%
13:00 +42°C° 0 mm 3 mps 740 mmHg 13%
14:00 +42°C° 0 mm 3 mps 739 mmHg 13%
15:00 +42°C° 0 mm 3 mps 739 mmHg 13%
16:00 +42°C° 0 mm 3 mps 739 mmHg 13%
17:00 +39°C° 0 mm 3 mps 739 mmHg 17%
18:00 +37°C° 0 mm 3 mps 739 mmHg 20%
19:00 +36°C° 0 mm 3 mps 739 mmHg 24%
20:00 +34°C° 0 mm 3 mps 739 mmHg 26%
21:00 +32°C° 0 mm 4 mps 739 mmHg 28%
22:00 +30°C° 0 mm 4 mps 739 mmHg 31%
23:00 +29°C° 0 mm 3 mps 739 mmHg 31%

Tomorrow, 5 August, Thursday

Time Temperature Precipitation Wind Pressure Humidity
00:00 +29°C° 0 mm 3 mps 739 mmHg 31%
01:00 +28°C° 0 mm 3 mps 739 mmHg 31%
02:00 +28°C° 0 mm 3 mps 739 mmHg 31%
03:00 +28°C° 0 mm 2 mps 738 mmHg 31%
04:00 +28°C° 0 mm 2 mps 738 mmHg 32%
05:00 +29°C° 0 mm 2 mps 738 mmHg 31%
06:00 +30°C° 0 mm 2 mps 738 mmHg 30%
07:00 +31°C° 0 mm 2 mps 738 mmHg 29%
08:00 +34°C° 0 mm 2 mps 738 mmHg 25%
09:00 +36°C° 0 mm 2 mps 738 mmHg 21%
10:00 +38°C° 0 mm 2 mps 738 mmHg 17%
11:00 +39°C° 0 mm 3 mps 738 mmHg 16%
12:00 +41°C° 0 mm 4 mps 737 mmHg 14%
13:00 +42°C° 0 mm 4 mps 737 mmHg 13%
14:00 +42°C° 0 mm 4 mps 737 mmHg 12%
15:00 +42°C° 0 mm 4 mps 736 mmHg 11%
16:00 +43°C° 0 mm 5 mps 736 mmHg 11%
17:00 +41°C° 0 mm 4 mps 736 mmHg 13%
18:00 +38°C° 0 mm 3 mps 736 mmHg 15%
19:00 +37°C° 0 mm 3 mps 735 mmHg 18%
20:00 +35°C° 0 mm 3 mps 735 mmHg 20%
21:00 +33°C° 0 mm 3 mps 735 mmHg 21%
22:00 +30°C° 0 mm 3 mps 735 mmHg 23%
23:00 +30°C° 0 mm 3 mps 735 mmHg 26%

Day after tomorrow, 6 August, Friday

Time Temperature Precipitation Wind Pressure Humidity
00:00 +29°C° 0 mm 3 mps 735 mmHg 29%
01:00 +28°C° 0 mm 4 mps 735 mmHg 33%
02:00 +28°C° 0.1 mm 5 mps 735 mmHg 37%
03:00 +27°C° 0.1 mm 5 mps 736 mmHg 41%
04:00 +27°C° 0.1 mm 6 mps 736 mmHg 44%
05:00 +27°C° 0 mm 6 mps 736 mmHg 47%
06:00 +26°C° 0 mm 6 mps 736 mmHg 49%
07:00 +26°C° 0 mm 6 mps 736 mmHg 51%
08:00 +27°C° 0 mm 6 mps 736 mmHg 48%
09:00 +29°C° 0 mm 6 mps 737 mmHg 44%
10:00 +30°C° 0 mm 6 mps 737 mmHg 41%
11:00 +32°C° 0 mm 6 mps 737 mmHg 36%
12:00 +33°C° 0 mm 6 mps 737 mmHg 32%
13:00 +34°C° 0 mm 6 mps 737 mmHg 28%
14:00 +34°C° 0 mm 6 mps 737 mmHg 26%
15:00 +34°C° 0 mm 6 mps 737 mmHg 24%
16:00 +34°C° 0 mm 7 mps 737 mmHg 22%
17:00 +33°C° 0 mm 7 mps 737 mmHg 23%
18:00 +32°C° 0 mm 7 mps 737 mmHg 24%
19:00 +30°C° 0 mm 7 mps 737 mmHg 25%
20:00 +29°C° 0 mm 7 mps 738 mmHg 27%
21:00 +28°C° 0 mm 6 mps 738 mmHg 28%
22:00 +26°C° 0 mm 6 mps 738 mmHg 30%
23:00 +25°C° 0 mm 5 mps 739 mmHg 34%

7 August, Saturday

Time Temperature Precipitation Wind Pressure Humidity
00:00 +23°C° 0 mm 5 mps 739 mmHg 38%
01:00 +22°C° 0 mm 4 mps 739 mmHg 41%
02:00 +21°C° 0 mm 4 mps 739 mmHg 45%
03:00 +21°C° 0 mm 4 mps 739 mmHg 49%
04:00 +20°C° 0 mm 3 mps 739 mmHg 53%
05:00 +21°C° 0 mm 4 mps 740 mmHg 52%
06:00 +21°C° 0 mm 4 mps 740 mmHg 52%
07:00 +22°C° 0 mm 4 mps 741 mmHg 51%
08:00 +23°C° 0 mm 4 mps 741 mmHg 45%
09:00 +25°C° 0 mm 4 mps 741 mmHg 40%
10:00 +27°C° 0 mm 5 mps 741 mmHg 35%
11:00 +28°C° 0 mm 5 mps 741 mmHg 32%
12:00 +29°C° 0 mm 4 mps 741 mmHg 29%
13:00 +29°C° 0 mm 4 mps 741 mmHg 26%
14:00 +30°C° 0 mm 4 mps 741 mmHg 25%
15:00 +30°C° 0 mm 5 mps 740 mmHg 23%
16:00 +32°C° 0 mm 5 mps 740 mmHg 22%
17:00 +30°C° 0 mm 5 mps 740 mmHg 23%
18:00 +29°C° 0 mm 5 mps 741 mmHg 24%
19:00 +28°C° 0 mm 5 mps 741 mmHg 25%
20:00 +27°C° 0 mm 4 mps 741 mmHg 28%
21:00 +25°C° 0 mm 4 mps 741 mmHg 31%
22:00 +23°C° 0 mm 4 mps 741 mmHg 33%
23:00 +22°C° 0 mm 3 mps 741 mmHg 36%

8 August, Sunday

Time Temperature Precipitation Wind Pressure Humidity
00:00 +21°C° 0 mm 3 mps 742 mmHg 38%
01:00 +20°C° 0 mm 3 mps 742 mmHg 41%
02:00 +20°C° 0 mm 3 mps 742 mmHg 42%
03:00 +19°C° 0 mm 3 mps 742 mmHg 44%
04:00 +18°C° 0 mm 2 mps 742 mmHg 46%
05:00 +19°C° 0 mm 2 mps 743 mmHg 44%
06:00 +20°C° 0 mm 2 mps 743 mmHg 42%
07:00 +21°C° 0 mm 2 mps 743 mmHg 40%
08:00 +24°C° 0 mm 3 mps 743 mmHg 37%
09:00 +25°C° 0 mm 4 mps 743 mmHg 33%
10:00 +27°C° 0 mm 5 mps 743 mmHg 30%
11:00 +28°C° 0 mm 5 mps 743 mmHg 28%
12:00 +29°C° 0 mm 5 mps 743 mmHg 26%
13:00 +30°C° 0 mm 5 mps 742 mmHg 24%
14:00 +30°C° 0 mm 5 mps 742 mmHg 23%
15:00 +32°C° 0 mm 6 mps 742 mmHg 22%
16:00 +32°C° 0 mm 6 mps 742 mmHg 21%
17:00 +30°C° 0 mm 5 mps 742 mmHg 22%
18:00 +29°C° 0 mm 5 mps 742 mmHg 24%
19:00 +28°C° 0 mm 4 mps 742 mmHg 25%
20:00 +27°C° 0 mm 4 mps 742 mmHg 26%
21:00 +25°C° 0 mm 4 mps 742 mmHg 27%
22:00 +23°C° 0 mm 4 mps 743 mmHg 27%
23:00 +22°C° 0 mm 3 mps 743 mmHg 30%

9 August, Monday

Time Temperature Precipitation Wind Pressure Humidity
00:00 +21°C° 0 mm 3 mps 743 mmHg 32%
01:00 +19°C° 0 mm 3 mps 743 mmHg 35%
02:00 +19°C° 0 mm 3 mps 743 mmHg 36%
03:00 +18°C° 0 mm 3 mps 743 mmHg 38%
04:00 +18°C° 0 mm 3 mps 743 mmHg 40%
05:00 +18°C° 0 mm 3 mps 743 mmHg 40%
06:00 +19°C° 0 mm 3 mps 743 mmHg 39%
07:00 +20°C° 0 mm 3 mps 744 mmHg 39%
08:00 +21°C° 0 mm 3 mps 744 mmHg 35%
09:00 +24°C° 0 mm 3 mps 744 mmHg 31%
10:00 +25°C° 0 mm 3 mps 744 mmHg 26%
11:00 +27°C° 0 mm 3 mps 744 mmHg 24%
12:00 +28°C° 0 mm 4 mps 744 mmHg 22%
13:00 +29°C° 0 mm 4 mps 743 mmHg 19%
14:00 +29°C° 0 mm 4 mps 743 mmHg 18%
15:00 +30°C° 0 mm 4 mps 743 mmHg 18%
16:00 +30°C° 0 mm 4 mps 743 mmHg 17%
17:00 +29°C° 0 mm 3 mps 743 mmHg 20%
18:00 +28°C° 0 mm 2 mps 743 mmHg 23%
19:00 +27°C° 0 mm 1 mps 743 mmHg 25%
20:00 +26°C° 0 mm 1 mps 743 mmHg 29%
21:00 +25°C° 0 mm 2 mps 743 mmHg 33%
22:00 +23°C° 0 mm 2 mps 743 mmHg 36%
23:00 +23°C° 0 mm 2 mps 743 mmHg 39%
Show more